﻿_id,日時,平均風速(m/s),平均風向,最大瞬間風速(m/s),最大風速時風向,気温(℃),湿度(%),10分間移動積算雨量(mm),1時間移動積算雨量(mm),日雨量(mm),累計雨量(mm)
1,2019-12-02T00:00:00,2.1,南東,4,南東,12.8,69.8,0,0,0,0
2,2019-12-02T00:01:00,2.2,南東,4,南東,12.8,69.9,0,0,0,0
3,2019-12-02T00:02:00,2.2,南東,4,南東,12.8,69.8,0,0,0,0
4,2019-12-02T00:03:00,2.1,南東,4,南東,12.8,69.9,0,0,0,0
5,2019-12-02T00:04:00,2.1,南東,4,南東,12.7,70.1,0,0,0,0
6,2019-12-02T00:05:00,2,南東,4,南東,12.7,70.1,0,0,0,0
7,2019-12-02T00:06:00,2.1,南東,4,南東,12.9,69.6,0,0,0,0
8,2019-12-02T00:07:00,2.1,南東,4,南東,12.8,69.6,0,0,0,0
9,2019-12-02T00:08:00,2.1,南東,4,南東,12.8,69.5,0,0,0,0
10,2019-12-02T00:09:00,2,南東,3.7,南東,12.7,69.8,0,0,0,0
11,2019-12-02T00:10:00,1.9,南東,3.7,南東,12.5,70.3,0,0,0,0
12,2019-12-02T00:11:00,1.7,南東,3.3,南東,12.5,70.7,0,0,0,0
13,2019-12-02T00:12:00,1.7,南南東,3.3,南東,12.6,70.8,0,0,0,0
14,2019-12-02T00:13:00,1.7,南南東,3.3,南東,12.7,70.5,0,0,0,0
15,2019-12-02T00:14:00,1.6,南南東,3.3,南東,12.7,70.4,0,0,0,0
16,2019-12-02T00:15:00,1.5,南南東,3.3,南東,12.6,70.5,0,0,0,0
17,2019-12-02T00:16:00,1.5,南,3.3,南東,12.6,70.7,0,0,0,0
18,2019-12-02T00:17:00,1.4,南,3.3,南東,12.6,70.7,0,0,0,0
19,2019-12-02T00:18:00,1.3,南,2.7,南南東,12.8,70,0,0,0,0
20,2019-12-02T00:19:00,1.5,南,3.7,南,12.9,69.2,0,0,0,0
21,2019-12-02T00:20:00,1.7,南,3.7,南,13,68.2,0,0,0,0
22,2019-12-02T00:21:00,1.8,南,3.7,南,13,68.3,0,0,0,0
23,2019-12-02T00:22:00,1.8,南,3.7,南,12.8,68.7,0,0,0,0
24,2019-12-02T00:23:00,1.9,南,3.7,南,12.8,68.9,0,0,0,0
25,2019-12-02T00:24:00,2,南,3.7,南,12.8,69,0,0,0,0
26,2019-12-02T00:25:00,2.1,南南東,3.7,南,12.8,69,0,0,0,0
27,2019-12-02T00:26:00,2.2,南南東,3.7,南,12.8,68.7,0,0,0,0
28,2019-12-02T00:27:00,2.2,南南東,3.7,南,12.8,68.5,0,0,0,0
29,2019-12-02T00:28:00,2.3,南南東,3.9,南南東,12.8,68.4,0,0,0,0
30,2019-12-02T00:29:00,2.4,南南東,4,南,12.9,68.2,0,0,0,0
31,2019-12-02T00:30:00,2.4,南南東,4.1,南,12.9,68.1,0,0,0,0
32,2019-12-02T00:31:00,2.3,南南東,4.1,南,12.8,68.2,0,0,0,0
33,2019-12-02T00:32:00,2.3,南南東,4.1,南,12.7,68.4,0,0,0,0
34,2019-12-02T00:33:00,2.3,南南東,4.1,南,12.8,67.9,0,0,0,0
35,2019-12-02T00:34:00,2.3,南南東,4.1,南,12.8,68.2,0,0,0,0
36,2019-12-02T00:35:00,2.1,南南東,4.1,南,12.7,68.5,0,0,0,0
37,2019-12-02T00:36:00,2.1,南南東,4.1,南,12.6,68.8,0,0,0,0
38,2019-12-02T00:37:00,2.2,南南東,4.1,南,12.7,68.7,0,0,0,0
39,2019-12-02T00:38:00,2.3,南南東,5.1,南東,12.7,68.8,0,0,0,0
40,2019-12-02T00:39:00,2.4,南南東,5.1,南東,12.7,68.4,0,0,0,0
41,2019-12-02T00:40:00,2.3,南南東,5.1,南東,12.7,68.3,0,0,0,0
42,2019-12-02T00:41:00,2.3,南南東,5.1,南東,12.6,68.6,0,0,0,0
43,2019-12-02T00:42:00,2.4,南南東,5.1,南東,12.6,68.6,0,0,0,0
44,2019-12-02T00:43:00,2.4,南南東,5.1,南東,12.6,68.4,0,0,0,0
45,2019-12-02T00:44:00,2.4,南南東,5.1,南東,12.6,68.5,0,0,0,0
46,2019-12-02T00:45:00,2.4,南南東,5.1,南東,12.6,68.6,0,0,0,0
47,2019-12-02T00:46:00,2.4,南南東,5.1,南東,12.5,68.6,0,0,0,0
48,2019-12-02T00:47:00,2.3,南南東,5.1,南東,12.5,68.8,0,0,0,0
49,2019-12-02T00:48:00,2.1,南南東,4.7,南南東,12.4,68.9,0,0,0,0
50,2019-12-02T00:49:00,1.9,南南東,3.7,南,12.4,69.2,0,0,0,0
51,2019-12-02T00:50:00,1.8,南南東,3.7,南,12.5,68.8,0,0,0,0
52,2019-12-02T00:51:00,1.9,南南東,4,南南東,12.5,68.8,0,0,0,0
53,2019-12-02T00:52:00,1.9,南南東,4,南南東,12.6,68.3,0,0,0,0
54,2019-12-02T00:53:00,1.9,南南東,4,南南東,12.6,68.1,0,0,0,0
55,2019-12-02T00:54:00,1.9,南南東,4,南南東,12.8,67.4,0,0,0,0
56,2019-12-02T00:55:00,2,南,4.3,南南西,13,66.1,0,0,0,0
57,2019-12-02T00:56:00,2.1,南,4.3,南南西,13,65.7,0,0,0,0
58,2019-12-02T00:57:00,2.2,南南東,4.3,南南西,12.9,65.7,0,0,0,0
59,2019-12-02T00:58:00,2.4,南南東,4.5,南南東,13,65.2,0,0,0,0
60,2019-12-02T00:59:00,2.6,南南東,5,南,13.1,64.7,0,0,0,0
61,2019-12-02T01:00:00,2.7,南南東,5,南,13.2,64,0,0,0,0
62,2019-12-02T01:01:00,2.6,南南東,5,南,13.1,64.3,0,0,0,0
63,2019-12-02T01:02:00,2.6,南南東,5,南,13,64.9,0,0,0,0
64,2019-12-02T01:03:00,2.5,南南東,5,南,13,64.6,0,0,0,0
65,2019-12-02T01:04:00,2.5,南南東,5,南,13,64.6,0,0,0,0
66,2019-12-02T01:05:00,2.5,南南東,5,南,13,64.9,0,0,0,0
67,2019-12-02T01:06:00,2.6,南南東,5,南,12.9,65.1,0,0,0,0
68,2019-12-02T01:07:00,2.5,南南東,5,南,12.9,65.3,0,0,0,0
69,2019-12-02T01:08:00,2.4,南南東,5,南,12.8,65.4,0,0,0,0
70,2019-12-02T01:09:00,2.2,南東,4.3,南南東,12.8,65.6,0,0,0,0
71,2019-12-02T01:10:00,2.2,南東,4.3,南南東,12.8,65.7,0,0,0,0
72,2019-12-02T01:11:00,2.2,南東,4.3,南南東,12.8,65.9,0,0,0,0
73,2019-12-02T01:12:00,2.3,南東,4.3,南南東,12.8,65.9,0,0,0,0
74,2019-12-02T01:13:00,2.3,南東,4.3,南南東,12.7,66,0,0,0,0
75,2019-12-02T01:14:00,2.2,南東,4.3,南南東,12.7,66.2,0,0,0,0
76,2019-12-02T01:15:00,2.1,南東,3.7,南東,12.6,66.4,0,0,0,0
77,2019-12-02T01:16:00,2,南東,3.7,南東,12.7,66.3,0,0,0,0
78,2019-12-02T01:17:00,1.9,南東,3.7,南東,12.7,66.3,0,0,0,0
79,2019-12-02T01:18:00,2,南東,3.7,南東,12.8,65.8,0,0,0,0
80,2019-12-02T01:19:00,2,南東,3.7,南東,12.8,65.7,0,0,0,0
81,2019-12-02T01:20:00,1.9,南東,3.7,南東,12.8,65.6,0,0,0,0
82,2019-12-02T01:21:00,1.9,南東,3.7,南東,12.8,65.5,0,0,0,0
83,2019-12-02T01:22:00,1.9,南東,3.9,南東,12.8,65.1,0,0,0,0
84,2019-12-02T01:23:00,1.8,南南東,3.9,南東,12.8,65,0,0,0,0
85,2019-12-02T01:24:00,1.7,南南東,3.9,南東,12.8,65.1,0,0,0,0
86,2019-12-02T01:25:00,1.7,南南東,3.9,南東,12.7,65.2,0,0,0,0
87,2019-12-02T01:26:00,1.9,南南東,3.9,南東,12.8,64.8,0,0,0,0
88,2019-12-02T01:27:00,2,南南東,3.9,南東,12.8,64.7,0,0,0,0
89,2019-12-02T01:28:00,2,南南東,3.9,南東,12.8,64.7,0,0,0,0
90,2019-12-02T01:29:00,2,南東,3.9,南東,12.8,64.6,0,0,0,0
91,2019-12-02T01:30:00,1.9,南東,3.9,南東,12.8,64.4,0,0,0,0
92,2019-12-02T01:31:00,2.1,南東,4.2,南東,12.8,64.4,0,0,0,0
93,2019-12-02T01:32:00,2.2,南東,5.3,南南東,12.8,64.2,0,0,0,0
94,2019-12-02T01:33:00,2.2,南東,5.3,南南東,12.8,63.9,0,0,0,0
95,2019-12-02T01:34:00,2.2,南東,5.3,南南東,12.8,64.1,0,0,0,0
96,2019-12-02T01:35:00,2.1,南東,5.3,南南東,12.7,64.3,0,0,0,0
97,2019-12-02T01:36:00,1.9,南東,5.3,南南東,12.8,64.2,0,0,0,0
98,2019-12-02T01:37:00,1.9,南東,5.3,南南東,12.8,63.9,0,0,0,0
99,2019-12-02T01:38:00,1.8,南東,5.3,南南東,12.9,63.8,0,0,0,0
100,2019-12-02T01:39:00,1.8,南東,5.3,南南東,12.8,63.7,0,0,0,0
101,2019-12-02T01:40:00,1.8,南東,5.3,南南東,12.8,63.9,0,0,0,0
102,2019-12-02T01:41:00,1.7,南東,5.3,南南東,12.8,63.9,0,0,0,0
103,2019-12-02T01:42:00,1.6,南東,3.6,南東,12.9,63.4,0,0,0,0
104,2019-12-02T01:43:00,1.6,南東,3.6,南東,12.8,63.8,0,0,0,0
105,2019-12-02T01:44:00,1.8,南東,3.6,南東,12.7,64.1,0,0,0,0
106,2019-12-02T01:45:00,1.9,南東,3.6,南東,13,63.2,0,0,0,0
107,2019-12-02T01:46:00,1.9,南東,3.6,南東,13,63.2,0,0,0,0
108,2019-12-02T01:47:00,1.9,南南東,3.6,南東,12.9,63.5,0,0,0,0
109,2019-12-02T01:48:00,1.8,南南東,3.6,南東,12.8,63.6,0,0,0,0
110,2019-12-02T01:49:00,1.7,南南東,3.6,南東,12.8,63.5,0,0,0,0
111,2019-12-02T01:50:00,1.7,南南東,3.6,南東,12.9,63.2,0,0,0,0
112,2019-12-02T01:51:00,1.8,南南東,3.9,南東,13,62.8,0,0,0,0
113,2019-12-02T01:52:00,1.7,南南東,3.9,南東,13.1,62.6,0,0,0,0
114,2019-12-02T01:53:00,1.8,南南東,3.9,南東,13.1,62.5,0,0,0,0
115,2019-12-02T01:54:00,1.7,南東,3.9,南東,13.1,62.7,0,0,0,0
116,2019-12-02T01:55:00,1.8,南東,3.9,南東,13,62.8,0,0,0,0
117,2019-12-02T01:56:00,1.8,南東,3.9,南東,13,62.8,0,0,0,0
118,2019-12-02T01:57:00,1.9,南東,3.9,南東,12.9,63.2,0,0,0,0
119,2019-12-02T01:58:00,2,南東,3.9,南東,13.2,62.6,0,0,0,0
120,2019-12-02T01:59:00,1.9,南南東,3.9,南東,13.1,62.5,0,0,0,0
121,2019-12-02T02:00:00,1.9,南東,3.9,南東,12.9,63,0,0,0,0
122,2019-12-02T02:01:00,1.9,南東,3.9,南,13.1,62.7,0,0,0,0
123,2019-12-02T02:02:00,1.9,南東,3.9,南,13,62.7,0,0,0,0
124,2019-12-02T02:03:00,1.8,南東,3.9,南,12.8,63.3,0,0,0,0
125,2019-12-02T02:04:00,1.9,南東,3.9,南,12.8,63.6,0,0,0,0
126,2019-12-02T02:05:00,1.8,南南東,3.9,南,12.9,63.6,0,0,0,0
127,2019-12-02T02:06:00,1.8,南東,3.9,南,13,62.9,0,0,0,0
128,2019-12-02T02:07:00,1.8,南東,3.7,東南東,12.9,63.3,0,0,0,0
129,2019-12-02T02:08:00,1.9,南東,3.7,東南東,12.9,63.2,0,0,0,0
130,2019-12-02T02:09:00,2,南東,3.7,東南東,12.8,63.4,0,0,0,0
131,2019-12-02T02:10:00,2.1,南東,3.4,東南東,12.7,63.8,0,0,0,0
132,2019-12-02T02:11:00,2.1,南東,3.4,東南東,12.7,64.4,0,0,0,0
133,2019-12-02T02:12:00,2.1,南東,3.7,南,12.6,64.8,0,0,0,0
134,2019-12-02T02:13:00,2.2,南東,3.7,南,12.5,65.6,0,0,0,0
135,2019-12-02T02:14:00,2.2,南東,3.7,南,12.6,65.2,0,0,0,0
136,2019-12-02T02:15:00,2.3,南東,3.7,南,12.7,64.7,0,0,0,0
137,2019-12-02T02:16:00,2.3,南南東,3.7,南,12.6,64.9,0,0,0,0
138,2019-12-02T02:17:00,2.3,南南東,3.7,南,12.6,65.3,0,0,0,0
139,2019-12-02T02:18:00,2.3,南南東,3.7,南,12.5,65.7,0,0,0,0
140,2019-12-02T02:19:00,2.4,南南東,3.7,南,12.5,65.6,0,0,0,0
141,2019-12-02T02:20:00,2.4,南南東,3.7,南,12.5,65.7,0,0,0,0
142,2019-12-02T02:21:00,2.4,南南東,3.7,南,12.5,65.7,0,0,0,0
143,2019-12-02T02:22:00,2.4,南南東,3.5,南南東,12.5,65.6,0,0,0,0
144,2019-12-02T02:23:00,2.5,南南東,4,南南東,12.5,65.6,0,0,0,0
145,2019-12-02T02:24:00,2.5,南南東,4,南南東,12.5,65.7,0,0,0,0
146,2019-12-02T02:25:00,2.6,南南東,4.1,南,12.4,66.3,0,0,0,0
147,2019-12-02T02:26:00,2.6,南南東,4.1,南,12.3,67.1,0,0,0,0
148,2019-12-02T02:27:00,2.7,南南東,4.1,南,12.3,67.6,0,0,0,0
149,2019-12-02T02:28:00,2.7,南南東,4.1,南,12.3,67.4,0,0,0,0
150,2019-12-02T02:29:00,2.8,南南東,4.1,南,12.4,67.1,0,0,0,0
151,2019-12-02T02:30:00,2.8,南南東,4.1,南,12.3,67.5,0,0,0,0
152,2019-12-02T02:31:00,2.9,南南東,4.3,南,12.2,68.2,0,0,0,0
153,2019-12-02T02:32:00,2.8,南南東,4.3,南,12.2,68,0,0,0,0
154,2019-12-02T02:33:00,2.8,南南東,4.3,南,12.2,68.4,0,0,0,0
155,2019-12-02T02:34:00,2.8,南南東,4.3,南,12.2,68,0,0,0,0
156,2019-12-02T02:35:00,2.8,南南東,4.3,南,12.3,68.2,0,0,0,0
157,2019-12-02T02:36:00,2.9,南南東,5.2,南南西,12.4,68.5,0,0,0,0
158,2019-12-02T02:37:00,2.9,南南東,5.2,南南西,12.2,69.1,0,0,0,0
159,2019-12-02T02:38:00,2.9,南南東,5.2,南南西,12.2,69.3,0,0,0,0
160,2019-12-02T02:39:00,2.9,南南東,5.2,南南西,12.1,69.8,0,0,0,0
161,2019-12-02T02:40:00,3,南南東,5.2,南南西,12.3,69.5,0,0,0,0
162,2019-12-02T02:41:00,3,南南東,5.2,南南西,12.3,69.2,0,0,0,0
163,2019-12-02T02:42:00,3,南南東,5.2,南南西,12.2,69.5,0,0,0,0
164,2019-12-02T02:43:00,3.1,南南東,5.2,南南西,12,70.2,0,0,0,0
165,2019-12-02T02:44:00,3.2,南南東,5.2,南南西,12,70.5,0,0,0,0
166,2019-12-02T02:45:00,3.4,南南東,5.4,南南東,12.1,70.5,0,0,0,0
167,2019-12-02T02:46:00,3.4,南南東,5.4,南南東,12,70.7,0,0,0,0
168,2019-12-02T02:47:00,3.4,南南東,5.4,南南東,11.9,71.1,0,0,0,0
169,2019-12-02T02:48:00,3.4,南南東,5.4,南南東,11.9,71.6,0,0,0,0
170,2019-12-02T02:49:00,3.3,南南東,5.4,南南東,11.9,71.7,0,0,0,0
171,2019-12-02T02:50:00,3.4,南南東,5.4,南南東,11.8,72.2,0,0,0,0
172,2019-12-02T02:51:00,3.3,南南東,5.4,南南東,11.9,72.2,0,0,0,0
173,2019-12-02T02:52:00,3.3,南南東,5.4,南南東,12.1,71.7,0,0,0,0
174,2019-12-02T02:53:00,3.2,南南東,5.4,南南東,11.9,72,0,0,0,0
175,2019-12-02T02:54:00,3.1,南南東,5.4,南南東,11.8,72.3,0,0,0,0
176,2019-12-02T02:55:00,3.1,南南東,5.1,南南東,11.9,72,0,0,0,0
177,2019-12-02T02:56:00,3,南南東,4.7,南南東,11.9,71.9,0,0,0,0
178,2019-12-02T02:57:00,3.1,南南東,4.7,南南東,11.8,72.4,0,0,0,0
179,2019-12-02T02:58:00,3.2,南南東,5.2,南南東,11.7,72.3,0,0,0,0
180,2019-12-02T02:59:00,3.4,南南東,5.2,南南東,11.7,72.7,0,0,0,0
181,2019-12-02T03:00:00,3.4,南南東,5.2,南南東,11.6,73.7,0,0,0,0
182,2019-12-02T03:01:00,3.4,南南東,5.2,南南東,11.6,74,0,0,0,0
183,2019-12-02T03:02:00,3.3,南南東,5.2,南南東,11.5,75,0,0,0,0
184,2019-12-02T03:03:00,3.5,南南東,5.2,南南東,11.5,75.2,0,0,0,0
185,2019-12-02T03:04:00,3.5,南南東,5.2,南南東,11.5,75.1,0,0,0,0
186,2019-12-02T03:05:00,3.5,南南東,5.2,南南東,11.4,75.6,0,0,0,0
187,2019-12-02T03:06:00,3.6,南南東,5.4,南南東,11.3,76.3,0,0,0,0
188,2019-12-02T03:07:00,3.6,南南東,5.7,南南東,11.5,75.4,0,0,0,0
189,2019-12-02T03:08:00,3.6,南南東,5.7,南南東,11.3,76,0,0,0,0
190,2019-12-02T03:09:00,3.6,南南東,5.9,南南東,11.3,76.5,0,0,0,0
191,2019-12-02T03:10:00,3.8,南南東,5.9,南南東,11.3,76.5,0,0,0,0
192,2019-12-02T03:11:00,3.8,南南東,5.9,南南東,11.2,77.1,0,0,0,0
193,2019-12-02T03:12:00,3.9,南南東,5.9,南南東,11.1,77.9,0,0,0,0
194,2019-12-02T03:13:00,3.9,南南東,5.9,南南東,11.1,78.5,0,0,0,0
195,2019-12-02T03:14:00,4,南南東,5.9,南南東,11,79.1,0,0,0,0
196,2019-12-02T03:15:00,3.9,南南東,5.9,南南東,10.9,79.5,0,0,0,0
197,2019-12-02T03:16:00,3.8,南南東,5.9,南南東,10.9,80.4,0,0,0,0
198,2019-12-02T03:17:00,3.6,南南東,5.9,南南東,10.8,81.1,0,0,0,0
199,2019-12-02T03:18:00,3.5,南南東,5.9,南南東,10.7,82.2,0,0,0,0
200,2019-12-02T03:19:00,3.3,南南東,5.8,南南東,10.7,82.7,0,0,0,0
201,2019-12-02T03:20:00,3.2,南南東,5.8,南南東,10.7,82.8,0,0,0,0
202,2019-12-02T03:21:00,3.2,南南東,5.8,南南東,10.7,82.5,0,0,0,0
203,2019-12-02T03:22:00,3.2,南南東,5.8,南南東,10.7,82.6,0,0,0,0
204,2019-12-02T03:23:00,3.2,南南東,5.8,南南東,10.7,82.6,0,0,0,0
205,2019-12-02T03:24:00,3.2,南,5.2,南南東,10.6,83.3,0,0,0,0
206,2019-12-02T03:25:00,3.3,南南東,5.3,南南東,10.6,83.7,0,0,0,0
207,2019-12-02T03:26:00,3.5,南南東,5.8,南南東,10.6,84.2,0,0,0,0
208,2019-12-02T03:27:00,3.8,南南東,5.8,南南東,10.6,84.2,0,0,0,0
209,2019-12-02T03:28:00,4,南南東,5.8,南南東,10.7,84.6,0,0,0,0
210,2019-12-02T03:29:00,4.1,南南東,5.8,南南東,10.6,84.4,0.5,0.5,0.5,0.5
211,2019-12-02T03:30:00,4.2,南南東,5.8,南南東,10.5,85,0.5,0.5,0.5,0.5
212,2019-12-02T03:31:00,4.2,南南東,5.8,南南東,10.5,85.4,0.5,0.5,0.5,0.5
213,2019-12-02T03:32:00,4.1,南南東,5.8,南南東,10.4,86.1,0.5,0.5,0.5,0.5
214,2019-12-02T03:33:00,4.1,南南東,5.8,南南東,10.3,87,0.5,0.5,0.5,0.5
215,2019-12-02T03:34:00,4.1,南南東,5.8,南南東,10.3,87.4,0.5,0.5,0.5,0.5
216,2019-12-02T03:35:00,4.1,南南東,5.8,南南東,10.4,87.4,0.5,0.5,0.5,0.5
217,2019-12-02T03:36:00,4,南南東,5.8,南東,10.3,87.7,0.5,0.5,0.5,0.5
218,2019-12-02T03:37:00,4,南南東,5.6,南南東,10.3,87.9,0.5,0.5,0.5,0.5
219,2019-12-02T03:38:00,4.1,南南東,6.7,南南東,10.3,87.8,0.5,0.5,0.5,0.5
220,2019-12-02T03:39:00,4.1,南南東,6.7,南南東,10.3,87.3,0,0.5,0.5,0.5
221,2019-12-02T03:40:00,4.1,南南東,6.7,南南東,10.3,87.7,0,0.5,0.5,0.5
222,2019-12-02T03:41:00,4.2,南南東,6.7,南南東,10.3,87.9,0,0.5,0.5,0.5
223,2019-12-02T03:42:00,4.4,南南東,6.7,南南東,10.3,88.5,0.5,1,1,1
224,2019-12-02T03:43:00,4.5,南南東,6.7,南南東,10.3,88.9,0.5,1,1,1
225,2019-12-02T03:44:00,4.6,南南東,7.3,南東,10.2,89.3,0.5,1,1,1
226,2019-12-02T03:45:00,4.8,南南東,8.1,南南東,10.3,89.1,0.5,1,1,1
227,2019-12-02T03:46:00,4.8,南南東,8.1,南南東,10.3,88.5,0.5,1,1,1
228,2019-12-02T03:47:00,4.8,南南東,8.1,南南東,10.3,89,0.5,1,1,1
229,2019-12-02T03:48:00,4.8,南南東,8.1,南南東,10.3,89.2,0.5,1,1,1
230,2019-12-02T03:49:00,4.9,南南東,8.1,南南東,10.3,89,0.5,1,1,1
231,2019-12-02T03:50:00,4.9,南南東,8.1,南南東,10.2,89.4,1,1.5,1.5,1.5
232,2019-12-02T03:51:00,4.9,南南東,8.1,南南東,10.2,89.6,1,1.5,1.5,1.5
233,2019-12-02T03:52:00,4.9,南南東,8.1,南南東,10.1,89.7,0.5,1.5,1.5,1.5
234,2019-12-02T03:53:00,4.9,南南東,8.1,南南東,10.1,90,0.5,1.5,1.5,1.5
235,2019-12-02T03:54:00,4.9,南南東,8.1,南南東,10,90.2,0.5,1.5,1.5,1.5
236,2019-12-02T03:55:00,4.9,南南東,7.4,南南東,10,90.4,0.5,1.5,1.5,1.5
237,2019-12-02T03:56:00,4.9,南南東,7.4,南南東,10,90.6,0.5,1.5,1.5,1.5
238,2019-12-02T03:57:00,5,南南東,7.4,南南東,10,90.9,0.5,1.5,1.5,1.5
239,2019-12-02T03:58:00,4.9,南南東,7.4,南南東,9.9,91.1,0.5,1.5,1.5,1.5
240,2019-12-02T03:59:00,4.8,南南東,8,南東,9.9,91.4,1,2,2,2
241,2019-12-02T04:00:00,4.9,南南東,9.1,南南東,9.9,91.7,0.5,2,2,2
242,2019-12-02T04:01:00,5,南南東,9.1,南南東,9.9,91.9,0.5,2,2,2
243,2019-12-02T04:02:00,5.3,南南東,9.1,南南東,9.9,92,0.5,2,2,2
244,2019-12-02T04:03:00,5.3,南南東,9.1,南南東,9.9,92.1,0.5,2,2,2
245,2019-12-02T04:04:00,5.4,南南東,9.1,南南東,9.9,92.2,0.5,2,2,2
246,2019-12-02T04:05:00,5.4,南南東,9.1,南南東,9.9,92.4,0.5,2,2,2
247,2019-12-02T04:06:00,5.5,南南東,9.1,南南東,9.9,92.5,0.5,2,2,2
248,2019-12-02T04:07:00,5.5,南南東,9.1,南南東,9.8,92.6,0.5,2,2,2
249,2019-12-02T04:08:00,5.7,南南東,9.1,南南東,9.8,92.8,0.5,2,2,2
250,2019-12-02T04:09:00,5.8,南南東,9.1,南南東,9.8,93,0.5,2.5,2.5,2.5
251,2019-12-02T04:10:00,5.7,南南東,8.4,南南東,9.9,92.9,0.5,2.5,2.5,2.5
252,2019-12-02T04:11:00,5.7,南南東,8.4,南南東,9.9,92.9,0.5,2.5,2.5,2.5
253,2019-12-02T04:12:00,5.6,南南東,8.4,南南東,9.9,92.9,0.5,2.5,2.5,2.5
254,2019-12-02T04:13:00,5.7,南南東,8.7,南南東,9.9,93.2,0.5,2.5,2.5,2.5
255,2019-12-02T04:14:00,5.8,南南東,8.7,南南東,10.1,93.4,0.5,2.5,2.5,2.5
256,2019-12-02T04:15:00,5.8,南南東,8.7,南南東,10.1,93,0.5,2.5,2.5,2.5
257,2019-12-02T04:16:00,5.7,南南東,8.7,南南東,10.1,92.6,0.5,2.5,2.5,2.5
258,2019-12-02T04:17:00,5.7,南南東,8.7,南南東,10.1,92.4,0.5,2.5,2.5,2.5
259,2019-12-02T04:18:00,5.7,南南東,8.7,南南東,10.1,92.4,0.5,2.5,2.5,2.5
260,2019-12-02T04:19:00,5.8,南南東,8.7,南南東,10.1,92.3,0,2.5,2.5,2.5
261,2019-12-02T04:20:00,5.8,南南東,8.7,南南東,10.2,92.4,0.5,3,3,3
262,2019-12-02T04:21:00,5.9,南南東,8.7,南南東,10.1,92.1,0.5,3,3,3
263,2019-12-02T04:22:00,5.9,南南東,8.7,南南東,10.1,92,0.5,3,3,3
264,2019-12-02T04:23:00,5.9,南南東,9.3,南南東,10,92,0.5,3,3,3
265,2019-12-02T04:24:00,5.9,南南東,9.3,南南東,10,92.1,0.5,3,3,3
266,2019-12-02T04:25:00,6,南南東,9.3,南南東,10,92.3,0.5,3,3,3
267,2019-12-02T04:26:00,6,南南東,9.3,南南東,10,92.4,0.5,3,3,3
268,2019-12-02T04:27:00,6.2,南南東,9.3,南南東,10.1,92.5,0.5,3,3,3
269,2019-12-02T04:28:00,6.1,南南東,9.3,南南東,10,92.3,0.5,3,3,3
270,2019-12-02T04:29:00,5.9,南南東,9.3,南南東,10.1,92.4,0.5,2.5,3,3
271,2019-12-02T04:30:00,5.8,南南東,9.3,南南東,10.3,92.7,0,2.5,3,3
272,2019-12-02T04:31:00,5.8,南南東,9.3,南南東,10.4,92.7,0,2.5,3,3
273,2019-12-02T04:32:00,5.8,南南東,9.3,南南東,10.5,92.4,0,2.5,3,3
274,2019-12-02T04:33:00,5.7,南南東,9.2,南南東,10.6,91.8,0,2.5,3,3
275,2019-12-02T04:34:00,5.6,南南東,8.6,南南東,10.7,91.3,0,2.5,3,3
276,2019-12-02T04:35:00,5.7,南南東,8.6,南南東,10.8,91,0,2.5,3,3
277,2019-12-02T04:36:00,5.6,南南東,8.6,南南東,10.8,90.3,0,2.5,3,3
278,2019-12-02T04:37:00,5.5,南南東,8.4,南南東,10.9,90,0,2.5,3,3
279,2019-12-02T04:38:00,5.6,南南東,8.4,南南東,10.8,89.6,0,2.5,3,3
280,2019-12-02T04:39:00,5.6,南南東,8.4,南南東,10.8,89.5,0,2.5,3,3
281,2019-12-02T04:40:00,5.7,南南東,8.4,南南東,10.8,89.6,0,2.5,3,3
282,2019-12-02T04:41:00,5.7,南南東,8.4,南南東,10.9,89.7,0,2.5,3,3
283,2019-12-02T04:42:00,5.5,南南東,8.4,南南東,10.8,89.5,0,2,3,3
284,2019-12-02T04:43:00,5.5,南南東,8.4,南南東,10.6,89.3,0,2,3,3
285,2019-12-02T04:44:00,5.4,南南東,8.4,南南東,10.5,89.6,0,2,3,3
286,2019-12-02T04:45:00,5.2,南南東,8.3,南,10.7,90.7,0.5,2.5,3.5,3.5
287,2019-12-02T04:46:00,5.1,南南東,8.3,南,10.6,90.7,0.5,2.5,3.5,3.5
288,2019-12-02T04:47:00,5,南南東,8.3,南,10.5,90.5,0.5,2.5,3.5,3.5
289,2019-12-02T04:48:00,4.9,南南東,8.3,南,10.5,90.7,0.5,2.5,3.5,3.5
290,2019-12-02T04:49:00,4.8,南南東,8.3,南,10.4,90.8,0.5,2.5,3.5,3.5
291,2019-12-02T04:50:00,4.7,南南東,7.3,南南東,10.4,91,0.5,2,3.5,3.5
292,2019-12-02T04:51:00,4.6,南南東,7.3,南南東,10.4,91.5,0.5,2,3.5,3.5
293,2019-12-02T04:52:00,4.6,南南東,7.3,南南東,10.3,91.1,0.5,2,3.5,3.5
294,2019-12-02T04:53:00,4.5,南南東,7.3,南南東,10.2,91.1,0.5,2,3.5,3.5
295,2019-12-02T04:54:00,4.4,南南東,7.3,南東,10.1,91.5,0.5,2,3.5,3.5
296,2019-12-02T04:55:00,4.4,南南東,7.3,南東,10,91.9,0,2,3.5,3.5
297,2019-12-02T04:56:00,4.4,南南東,7.3,南東,10,92.3,0,2,3.5,3.5
298,2019-12-02T04:57:00,4.4,南南東,7.3,南東,10,92.7,0,2,3.5,3.5
299,2019-12-02T04:58:00,4.5,南南東,7.7,南南東,10,93.1,0,2,3.5,3.5
300,2019-12-02T04:59:00,4.6,南南東,7.7,南南東,10,93.3,0,1.5,3.5,3.5
301,2019-12-02T05:00:00,4.5,南南東,7.7,南南東,10.1,93.5,0,1.5,3.5,3.5
302,2019-12-02T05:01:00,4.6,南南東,7.7,南南東,10.2,93.8,0,1.5,3.5,3.5
303,2019-12-02T05:02:00,4.6,南南東,7.7,南南東,10.2,94,0,1.5,3.5,3.5
304,2019-12-02T05:03:00,4.7,南南東,7.7,南南東,10.2,93.5,0,1.5,3.5,3.5
305,2019-12-02T05:04:00,4.6,南南東,7.7,南南東,10.2,93.2,0,1.5,3.5,3.5
306,2019-12-02T05:05:00,4.5,南南東,7.7,南南東,10.1,93.2,0,1.5,3.5,3.5
307,2019-12-02T05:06:00,4.5,南南東,7.7,南南東,10.1,93.3,0,1.5,3.5,3.5
308,2019-12-02T05:07:00,4.5,南南東,7.7,南南東,10.3,93.8,0,1.5,3.5,3.5
309,2019-12-02T05:08:00,4.5,南南東,7.3,南東,10.4,94.1,0,1.5,3.5,3.5
310,2019-12-02T05:09:00,4.3,南南東,7.3,南東,10.5,94,0,1,3.5,3.5
311,2019-12-02T05:10:00,4.2,南南東,7.3,南東,10.6,93.5,0,1,3.5,3.5
312,2019-12-02T05:11:00,4.1,南南東,7.1,南南東,10.6,93,0,1,3.5,3.5
313,2019-12-02T05:12:00,3.9,南南東,7.1,南南東,10.7,92.7,0,1,3.5,3.5
314,2019-12-02T05:13:00,3.9,南南東,7.1,南南東,10.8,92.6,0,1,3.5,3.5
315,2019-12-02T05:14:00,3.9,南,7.1,南南東,10.7,92.1,0,1,3.5,3.5
316,2019-12-02T05:15:00,4,南,7.1,南南東,10.8,92,0,1,3.5,3.5
317,2019-12-02T05:16:00,4,南,7.1,南南東,10.8,92,0,1,3.5,3.5
318,2019-12-02T05:17:00,3.8,南,6.2,南,10.9,91.9,0,1,3.5,3.5
319,2019-12-02T05:18:00,3.7,南,6.2,南,10.9,91.7,0,1,3.5,3.5
320,2019-12-02T05:19:00,3.8,南,6.2,南,10.9,91.6,0,1,3.5,3.5
321,2019-12-02T05:20:00,3.8,南,6.2,南,10.8,91.3,0,0.5,3.5,3.5
322,2019-12-02T05:21:00,3.9,南,6.2,南,10.9,91.4,0,0.5,3.5,3.5
323,2019-12-02T05:22:00,4,南,6.2,南,10.8,91.1,0.5,1,4,4
324,2019-12-02T05:23:00,4,南,6.2,南,10.7,91,0.5,1,4,4
325,2019-12-02T05:24:00,3.9,南南東,6.2,南,10.6,91.4,0.5,1,4,4
326,2019-12-02T05:25:00,3.9,南南東,5.9,南南西,10.5,91.6,0.5,1,4,4
327,2019-12-02T05:26:00,3.8,南南東,5.9,南南西,10.5,91.9,0.5,1,4,4
328,2019-12-02T05:27:00,3.8,南南東,5.9,南南西,10.5,92.3,0.5,1,4,4
329,2019-12-02T05:28:00,3.9,南南東,5.9,南南西,10.5,92.7,0.5,1,4,4
330,2019-12-02T05:29:00,3.9,南南東,6,南南東,10.5,92.8,0.5,1,4,4
331,2019-12-02T05:30:00,3.9,南南東,6,南南東,10.5,93,0.5,1,4,4
332,2019-12-02T05:31:00,4,南南東,6.7,南,10.6,93.3,0.5,1,4,4
333,2019-12-02T05:32:00,4,南南東,6.7,南,10.6,93.5,0,1,4,4
334,2019-12-02T05:33:00,4.1,南南東,6.9,南南東,10.6,93.4,0,1,4,4
335,2019-12-02T05:34:00,4.2,南南東,6.9,南南東,10.6,93.4,0,1,4,4
336,2019-12-02T05:35:00,4.2,南南東,6.9,南南東,10.6,93.4,0,1,4,4
337,2019-12-02T05:36:00,4.3,南南東,6.9,南南東,10.6,93.4,0,1,4,4
338,2019-12-02T05:37:00,4.3,南南東,6.9,南南東,10.6,93.3,0.5,1.5,4.5,4.5
339,2019-12-02T05:38:00,4.5,南南東,8.5,南南東,10.6,93.3,0.5,1.5,4.5,4.5
340,2019-12-02T05:39:00,4.6,南南東,8.5,南南東,10.5,93.3,0.5,1.5,4.5,4.5
341,2019-12-02T05:40:00,4.9,南南東,8.5,南南東,10.5,93.2,0.5,1.5,4.5,4.5
342,2019-12-02T05:41:00,4.8,南南東,8.5,南南東,10.5,93.2,0.5,1.5,4.5,4.5
343,2019-12-02T05:42:00,4.7,南南東,8.5,南南東,10.4,93.1,0.5,1.5,4.5,4.5
344,2019-12-02T05:43:00,4.6,南南東,8.5,南南東,10.4,93.2,0.5,1.5,4.5,4.5
345,2019-12-02T05:44:00,4.6,南南東,8.5,南南東,10.4,93.5,0.5,1.5,4.5,4.5
346,2019-12-02T05:45:00,4.7,南南東,8.5,南南東,10.4,93.8,0.5,1,4.5,4.5
347,2019-12-02T05:46:00,4.6,南南東,8.5,南南東,10.5,94.1,0.5,1,4.5,4.5
348,2019-12-02T05:47:00,4.6,南南東,8.5,南南東,10.5,94.2,0,1,4.5,4.5
349,2019-12-02T05:48:00,4.5,南南東,8,南南東,10.5,94.3,0,1,4.5,4.5
350,2019-12-02T05:49:00,4.5,南南東,7.8,南東,10.5,94.3,0,1,4.5,4.5
351,2019-12-02T05:50:00,4.2,南南東,7.8,南東,10.5,94.1,0,1,4.5,4.5
352,2019-12-02T05:51:00,4.1,南南東,7.8,南東,10.5,94.3,0.5,1.5,5,5
353,2019-12-02T05:52:00,4.2,南南東,7.8,南東,10.5,94.3,0.5,1.5,5,5
354,2019-12-02T05:53:00,4.1,南南東,7.8,南東,10.5,94.4,0.5,1.5,5,5
355,2019-12-02T05:54:00,4.1,南南東,7.8,南東,10.5,94.5,0.5,1.5,5,5
356,2019-12-02T05:55:00,3.9,南南東,7.8,南東,10.5,94.6,0.5,1.5,5,5
357,2019-12-02T05:56:00,3.8,南東,7,南東,10.6,94.6,0.5,1.5,5,5
358,2019-12-02T05:57:00,3.8,南南東,7,南東,10.6,94.6,0.5,1.5,5,5
359,2019-12-02T05:58:00,3.6,南南東,7,南東,10.6,94.5,0.5,1.5,5,5
360,2019-12-02T05:59:00,3.6,南南東,6.4,南東,10.7,94.5,0.5,1.5,5,5
361,2019-12-02T06:00:00,3.7,南南東,6.4,南東,10.8,94.6,0.5,1.5,5,5
362,2019-12-02T06:01:00,3.6,南南東,6,南東,10.8,94.3,0,1.5,5,5
363,2019-12-02T06:02:00,3.5,南南東,6,南東,10.8,93.9,0,1.5,5,5
364,2019-12-02T06:03:00,3.5,南南東,6,南東,10.8,93.8,0,1.5,5,5
365,2019-12-02T06:04:00,3.4,南南東,6,南東,10.7,93.7,0,1.5,5,5
366,2019-12-02T06:05:00,3.4,南南東,6,南東,10.8,93.9,0,1.5,5,5
367,2019-12-02T06:06:00,3.2,南南東,5.9,南東,10.8,93.9,0,1.5,5,5
368,2019-12-02T06:07:00,3.1,南南東,5.9,南東,10.8,93.9,0,1.5,5,5
369,2019-12-02T06:08:00,3,南南東,5.9,南東,10.8,93.9,0,1.5,5,5
370,2019-12-02T06:09:00,3,南南東,5.9,南東,10.8,94.1,0,1.5,5,5
371,2019-12-02T06:10:00,2.9,南南東,5.1,南南東,10.8,94,0,1.5,5,5
372,2019-12-02T06:11:00,2.8,南南東,5.1,南南東,10.8,93.9,0,1.5,5,5
373,2019-12-02T06:12:00,2.8,南南東,5.1,南南東,10.8,93.9,0,1.5,5,5
374,2019-12-02T06:13:00,2.9,南南東,5.1,南南東,10.8,93.8,0,1.5,5,5
375,2019-12-02T06:14:00,3,南南東,5.1,南南東,10.8,93.9,0,1.5,5,5
376,2019-12-02T06:15:00,3,南南東,5.1,南南東,10.8,93.9,0,1.5,5,5
377,2019-12-02T06:16:00,2.9,南南東,5.1,南南東,10.8,93.9,0,1.5,5,5
378,2019-12-02T06:17:00,2.9,南南東,5.1,南南東,10.8,94.1,0,1.5,5,5
379,2019-12-02T06:18:00,2.9,南南東,5.1,南南東,10.7,94,0,1.5,5,5
380,2019-12-02T06:19:00,2.8,南南東,4.6,南東,10.7,94,0,1.5,5,5
381,2019-12-02T06:20:00,2.7,南南東,4.6,南東,10.7,94.2,0,1.5,5,5
382,2019-12-02T06:21:00,2.6,南南東,4.6,南東,10.7,94.2,0,1.5,5,5
383,2019-12-02T06:22:00,2.4,南南東,4.6,南東,10.7,94.2,0,1,5,5
384,2019-12-02T06:23:00,2.3,南南東,4.1,南東,10.6,94.3,0,1,5,5
385,2019-12-02T06:24:00,2.1,南南東,3.9,南南東,10.5,94.3,0,1,5,5
386,2019-12-02T06:25:00,2,南南東,3.7,南南東,10.5,94.5,0,1,5,5
387,2019-12-02T06:26:00,2,南南東,3.7,南南東,10.5,94.7,0,1,5,5
388,2019-12-02T06:27:00,2,南南東,3.7,南南東,10.5,94.9,0,1,5,5
389,2019-12-02T06:28:00,1.9,南南東,3.7,南南東,10.5,95,0,1,5,5
390,2019-12-02T06:29:00,1.8,南南東,3.7,南南東,10.4,95.1,0,1,5,5
391,2019-12-02T06:30:00,1.9,南南東,3.8,南東,10.5,95.3,0,1,5,5
392,2019-12-02T06:31:00,2,南南東,4.6,南南東,10.5,95.4,0,1,5,5
393,2019-12-02T06:32:00,2,南南東,4.6,南南東,10.5,95.5,0,1,5,5
394,2019-12-02T06:33:00,2,南南東,4.6,南南東,10.5,95.5,0,1,5,5
395,2019-12-02T06:34:00,1.9,南南東,4.6,南南東,10.5,95.5,0,1,5,5
396,2019-12-02T06:35:00,1.9,南南東,4.6,南南東,10.6,95.6,0,1,5,5
397,2019-12-02T06:36:00,1.9,南南東,4.6,南南東,10.6,95.6,0,1,5,5
398,2019-12-02T06:37:00,1.8,南南東,4.6,南南東,10.5,95.5,0,0.5,5,5
399,2019-12-02T06:38:00,1.7,南南東,4.6,南南東,10.5,95.4,0,0.5,5,5
400,2019-12-02T06:39:00,1.6,南,4.6,南南東,10.4,95.4,0,0.5,5,5
401,2019-12-02T06:40:00,1.6,南,4.6,南南東,10.4,95.4,0,0.5,5,5
402,2019-12-02T06:41:00,1.4,南,3,南南東,10.4,95.5,0,0.5,5,5
403,2019-12-02T06:42:00,1.4,南,2.8,東南東,10.5,95.6,0,0.5,5,5
404,2019-12-02T06:43:00,1.4,南,2.8,東南東,10.4,95.7,0,0.5,5,5
405,2019-12-02T06:44:00,1.4,南,4.3,東南東,10.4,95.6,0,0.5,5,5
406,2019-12-02T06:45:00,1.6,南,4.3,東南東,10.6,95.8,0,0.5,5,5
407,2019-12-02T06:46:00,1.6,南,4.3,東南東,10.7,96,0,0.5,5,5
408,2019-12-02T06:47:00,1.7,南,4.3,東南東,10.6,95.8,0.5,1,5.5,5.5
409,2019-12-02T06:48:00,1.8,南南東,4.3,東南東,10.6,95.8,0.5,1,5.5,5.5
410,2019-12-02T06:49:00,1.8,南南東,4.3,東南東,10.6,95.7,0.5,1,5.5,5.5
411,2019-12-02T06:50:00,1.7,南南東,4.3,東南東,10.6,95.7,0.5,1,5.5,5.5
412,2019-12-02T06:51:00,1.7,南南東,4.3,東南東,10.7,95.8,0.5,0.5,5.5,5.5